Location: Kershaw
(34.5481°N, 80.5823°W)
Time: 00:15:28
(UTC+00:00)

Altair - Pass Details

Date: 06 October 2022
Orbit: 1501 x 1682 km, 47.2° (Epoch: 05 December)

Event Time Altitude Azimuth Distance (km) Brightness Sun altitude
Exits shadow 07:17:51 29° 104° (ESE) 2,609 8.8 -48.4°
Drops below altitude 10° 07:23:44 10° 70° (ENE) 3,843 10.1 -47.4°
Sets 07:27:20 0° 61° (ENE) 4,858 10.8 -46.8°
